DECAYED

STARLINK-5292, 55308 (Decayed)

Orbit data source: Space-Track

STARLINK-5292, 55308 was a payload satellite owned by SpaceX/Seattle (US) in LEO that was launched on Thu, 19 Jan 2023 UTC via an FALCON 9 launch vehicle from the Air Force Western Test Range (AFWTR). Payload-class satellites include a variety of spacecraft equipped with specific instruments for various scientific and technological missions. These include communications satellites like Starlink; space stations such as the ISS; scientific satellites like the Hubble; Earth observation satellites from companies like Planet Labs, Umbra, and HawkEye 360; GPS; miniature CubeSats for education and research; and military/defense satellites.

Not visible in the next 10 days
Identifier
55308, 2023-010AR
Orbit
Decayed
Country
Flag of USUS
Related business
Manufacturer
SpaceX/Seattle
Mission
Decayed Commercial Communications
Bus & Motor
STARLINK, Unknown motor
Mass
305 kg wet, ~290 kg dry
Launch date (UTC)
2023-01-19 (3 years ago)
Launch vehicle
FALCON 9
Launch site
Air Force Western Test Range (AFWTR)
Object type
Payload
Rocket body
Debris
Shape & HBR
Box + 1 Pan, 10.1 m
Radar Cross Section
13.562 m², Large (>1 m²)

Expand to show TLE details & history
Last TLE update: 1 year ago

TLE from 1 year ago
0 STARLINK-5292
1 55308U 23010AR  25106.49102245  .17586888  44615-5  26174-3 0  9997
2 55308  69.9843  94.0556 0011093 256.1633 246.0671 16.47976634124816
Epoch: 2025-04-16T11:47Z
TLE epoch observation values (Epoch: 2025-04-16T11:47:04.339Z)
Latitude
35.33032°
Longitude
-122.46484°
Altitude
151.881 km
Speed
7.817 km/s
True Right ascension
17h 16m 43s
True Declination
35° 09' 11"
Sunlit
Object was in full shadow at epoch
Visualization orbit readout
Latitude
Unknown
Longitude
Unknown
Altitude
Unknown
Speed
Unknown
Apparent Right ascension
Unknown
Apparent Declination
Unknown
Sunlit
N/A
Visualization observer readout
Local Sidereal Time
21:32:27
Azimuth
Unknown
Elevation
Unknown
Doppler factor
Unknown
Orbital elements
Apogee altitude
149.718 km
Perigee altitude
135.251 km
Semi-major axis
6,520.621 km
Eccentricity
0.00111
Inclination
69.9843°
RAAN
94.0556°
Arg. of periapsis
256.1633°
True anomaly
245.95098°
Mean anomaly
246.0671°
Eccentric anomaly
246.00903°
Mean motion
4.12202 °/min
Orbital period
87.34 mins
BSTAR
0.00026174
Loading maneuver chart data...
Computing Atmospheric mass density...
Loading historical data...
Loading historical data...
Loading historical data...
Loading historical data...
Loading historical data...
Loading historical data...
Loading historical data...

Documentation

Showing up to 5 results
|